Effective Sunday, March 17, 2024, the National Weather Service National Data Buoy Center will discontinue its Dial-A-Buoy Interactive Voice Response system. For more information, see Service Change Notice 24-06 (PDF).

Station BSLM2 - Jug Bay, Chesapeake Bay Reserve, MD Image indicating link to RSS feed of recent meteorological observations for station BSLM2


Conditions at BSLM2 as of
(4:30 pm EST)
2130 GMT on 03/03/2024:
     

Click on the graph icon in the table below to see a time series plot of the last five days of that observation.

5-day plot - Wind Direction Wind Direction (WDIR): SE ( 140 deg true )
5-day plot - Wind Speed Wind Speed (WSPD): 5.1 kts
5-day plot - Atmospheric Pressure Atmospheric Pressure (PRES):30.18 in
5-day plot - Air Temperature Air Temperature (ATMP): 65.8 °F
5-day plot - Dew Point Dew Point (DEWP): 45.3 °F
5-day plot -  Wind Speed, Wind Gust and Atmospheric Pressure Combined plot of Wind Speed, Gust, and Air Pressure
Previous observations
TIME
(EST)
5-day plot - Wind Direction
WDIR
 
5-day plot - Wind Speed
WSPD
kts
5-day plot - Wind Gust
GST
kts
5-day plot - Wave Height
WVHT
ft
5-day plot - Dominant Wave Period
DPD
sec
5-day plot - Average Wave Period
APD
sec
5-day plot - Mean Wave Direction
MWD
 
5-day plot - Atmospheric Pressure
PRES
in
5-day plot - Pressure Tendency
PTDY
in
5-day plot - Air Temperature
ATMP
°F
5-day plot - Water Temperature
WTMP
°F
5-day plot - Dew Point
DEWP
°F
5-day plot - Salinity
SAL
psu
5-day plot - Visibility
VIS
nmi
5-day plot - Tide (above MLLW)
TIDE
ft
2024-03-03 04:15 pm SE 5.1-----30.18- 66.2- 45.1---
2024-03-03 04:00 pmESE 5.1-----30.18-0.03 64.0- 44.8---
2024-03-03 03:45 pmESE 5.1-----30.18- 63.3- 44.1---
2024-03-03 03:30 pm SE 5.1-----30.18- 63.3- 45.1---
2024-03-03 03:15 pm SE 5.1-----30.18- 63.9- 45.7---
2024-03-03 03:00 pm SE 4.1-----30.18-0.06 64.4- 46.8---
2024-03-03 02:45 pmESE 4.1-----30.18- 64.0- 47.3---
2024-03-03 02:30 pm SE 4.1-----30.18- 63.5- 48.7---
2024-03-03 02:15 pmSSE 5.1-----30.18- 63.9- 49.1---
2024-03-03 02:00 pm SE 5.1-----30.18-0.09 64.2- 48.4---
2024-03-03 01:45 pm SE 4.1-----30.21- 64.6- 48.4---
2024-03-03 01:30 pmSSE 2.9-----30.21- 64.8- 48.6---
2024-03-03 01:15 pmSSE 4.1-----30.21- 64.6- 49.3---
2024-03-03 01:00 pm W 1.9-----30.21-0.06 64.6- 46.8---
2024-03-03 12:45 pmSSE 2.9-----30.21- 64.0- 47.3---
2024-03-03 12:30 pm S 2.9-----30.24- 62.8- 47.1---
2024-03-03 12:15 pm S 1.9-----30.24- 62.6- 47.5---
2024-03-03 12:00 pm S 2.9-----30.24+0.00 60.8- 47.8---
2024-03-03 11:45 amSSE 4.1-----30.24- 58.6- 49.1---
2024-03-03 11:30 amSSE 4.1-----30.24- 59.5- 48.4---
2024-03-03 11:15 am S 2.9-----30.27- 59.5- 47.1---
2024-03-03 11:00 am W 1.9-----30.27+0.03 58.3- 45.9---
2024-03-03 10:45 amNNW 1.0-----30.27- 57.7- 46.2---
2024-03-03 10:30 am N 1.0-----30.24- 56.8- 46.6---
2024-03-03 10:15 am N 1.0-----30.24- 56.3- 46.4---
2024-03-03 10:00 am- 0.0-----30.27+0.06 54.9- 46.8---
2024-03-03 09:45 am- 0.0-----30.27- 53.6- 48.0---
2024-03-03 09:30 am- 0.0-----30.24- 51.3- 49.8---
2024-03-03 09:15 amNNE 1.0-----30.24- 49.1- 49.1---
2024-03-03 09:00 am- 0.0-----30.24+0.03 47.3- 47.3---
2024-03-03 08:45 am- 0.0-----30.24- 46.2- 46.2---
2024-03-03 08:30 am SE 1.0-----30.24- 44.8- 44.8---
2024-03-03 08:15 amSSE 1.0-----30.24- 44.1- 44.1---
2024-03-03 08:00 am S 1.9-----30.24+0.06 43.3- 43.3---
2024-03-03 07:45 am SE 1.0-----30.24- 42.6- 42.6---
2024-03-03 07:30 am SE 1.9-----30.24- 42.1- 42.1---
2024-03-03 07:15 am SE 1.9-----30.21- 41.7- 41.7---
2024-03-03 07:00 amSSE 2.9-----30.21+0.03 41.4- 41.4---
2024-03-03 06:45 amSSE 2.9-----30.21- 41.5- 41.5---
2024-03-03 06:30 amSSE 4.1-----30.21- 41.7- 41.5---
2024-03-03 06:15 am S 1.9-----30.21- 40.3- 40.1---
2024-03-03 06:00 am- 0.0-----30.21+0.06 39.6- 39.4---
2024-03-03 05:45 am- 0.0-----30.18- 39.7- 39.6---
2024-03-03 05:30 am- 0.0-----30.18- 39.7- 39.6---
2024-03-03 05:15 am- 0.0-----30.18- 40.1- 39.9---
2024-03-03 05:00 am- 0.0-----30.18+0.03 41.0- 40.8---
2024-03-03 04:45 am N 1.0-----30.18- 41.2- 41.0---
2024-03-03 04:30 amNNW 1.9-----30.18- 41.2- 41.0---
2024-03-03 04:15 amNNW 1.9-----30.18- 42.1- 41.9---
2024-03-03 04:00 amNNE 1.9-----30.18+0.03 41.9- 41.7---
2024-03-03 03:45 amESE 1.0-----30.18- 41.4- 41.2---
2024-03-03 03:30 am- 0.0-----30.18- 41.0- 40.8---
2024-03-03 03:15 am NW 1.0-----30.15- 41.2- 41.0---
2024-03-03 03:00 amNNW 1.0-----30.15+0.00 42.1- 41.9---
2024-03-03 02:45 am NE 1.0-----30.15- 41.9- 41.7---
2024-03-03 02:30 am- 0.0-----30.15- 41.9- 41.7---
2024-03-03 02:15 amWSW 1.0-----30.15- 41.7- 41.2---
2024-03-03 02:00 am- 0.0-----30.15+0.00 43.7- 43.5---
2024-03-03 01:45 amNNE 1.0-----30.15- 43.3- 42.8---
2024-03-03 01:30 amNNE 1.0-----30.15- 43.2- 42.6---
2024-03-03 01:15 amNNW 1.0-----30.15- 43.7- 43.0---
2024-03-03 01:00 am NW 1.0-----30.15+0.00 44.8- 44.1---
2024-03-03 12:45 am- 0.0-----30.15- 45.7- 44.6---
2024-03-03 12:30 am N 1.9-----30.15- 45.9- 45.1---
2024-03-03 12:15 am- 0.0-----30.15- 45.7- 45.0---
2024-03-03 12:00 amNNW 1.0-----30.15+0.03 45.9- 45.1---
2024-03-02 11:45 pm- 0.0-----30.15- 45.9- 45.1---
2024-03-02 11:30 pm NE 1.0-----30.15- 45.9- 44.8---
2024-03-02 11:15 pm SW 1.0-----30.15- 46.2- 45.0---
2024-03-02 11:00 pm- 0.0-----30.15+0.03 47.5- 45.5---
2024-03-02 10:45 pm- 0.0-----30.15- 48.2- 46.0---
2024-03-02 10:30 pm W 1.9-----30.15- 48.7- 46.2---
2024-03-02 10:15 pm W 2.9-----30.15- 49.3- 46.6---
2024-03-02 10:00 pm W 2.9-----30.15+0.06 49.6- 46.9---
2024-03-02 09:45 pmWNW 2.9-----30.15- 50.2- 47.5---
2024-03-02 09:30 pm W 4.1-----30.15- 50.5- 47.5---
2024-03-02 09:15 pm W 4.1-----30.12- 50.7- 48.0---
2024-03-02 09:00 pm W 4.1-----30.12+0.03 51.1- 48.2---
2024-03-02 08:45 pm W 4.1-----30.12- 51.3- 48.4---
2024-03-02 08:30 pm W 1.9-----30.12- 51.1- 48.9---
2024-03-02 08:15 pm S 1.9-----30.12- 50.5- 48.9---
2024-03-02 08:00 pmSSE 1.9-----30.12+0.03 50.7- 48.7---
2024-03-02 07:45 pm- 0.0-----30.09- 51.3- 48.4---
2024-03-02 07:30 pmNNW 1.0-----30.09- 51.3- 48.2---
2024-03-02 07:15 pm NW 1.9-----30.09- 51.3- 48.2---
2024-03-02 07:00 pmNNW 1.9-----30.09+0.03 51.1- 48.0---
2024-03-02 06:45 pm NW 1.0-----30.09- 51.3- 47.8---
2024-03-02 06:30 pm NW 1.0-----30.09- 51.4- 48.0---
2024-03-02 06:15 pm NW 1.0-----30.09- 51.4- 48.0---
2024-03-02 06:00 pmNNW 1.9-----30.09+0.03 51.8- 48.0---
2024-03-02 05:45 pmNNW 2.9-----30.09- 52.2- 48.2---
2024-03-02 05:30 pmNNW 2.9-----30.09- 52.2- 48.4---
2024-03-02 05:15 pmNNW 2.9-----30.09- 52.0- 48.2---
2024-03-02 05:00 pm NW 4.1-----30.09+0.03 51.8- 48.4---